Location: Seattle
(47.6064°N, 122.3308°W)
Time: 00:59:59
(UTC-07:00)

RS-15 - Pass Details

Date: 08 April 2023
Orbit: 1885 x 2159 km, 64.8° (Epoch: 29 May)

Event Time Altitude Azimuth Distance (km) Brightness Sun altitude
Rises 00:31:45 0° 322° (NW) 5,632 11.3 -34.6°
Reaches altitude 10° 00:35:16 10° 319° (NW) 4,599 10.6 -34.7°
Maximum altitude 00:46:52 62° 244° (WSW) 2,231 8.1 -35.0°
Enters shadow 00:48:08 59° 218° (SW) 2,264 8.0 -35.0°
